DW1053 Weather Reports


Display with metric or nautical units.
time (UTC)temp
F
wind
direction
speed
MPH
gust
MPH
rain 1hr
in
rain 24hr
in
rain mn
in
humidity
%
barometer
mb
20260510210208 58 144 0.0 1.0 0.00 0.03 0.03 91 1003.6
20260510200207 58 144 0.0 0.0 0.00 0.03 0.03 90 1003.6
20260510190207 60 161 0.0 0.0 0.01 0.03 0.03 88 1003.8
20260510180206 60 163 0.0 0.0 0.01 0.02 0.02 85 1003.9
20260510170206 61 165 0.0 1.0 0.00 0.02 0.02 82 1004.4
20260510160226 62 165 0.0 0.0 0.02 0.02 0.02 83 1005.1
20260510150206 64 293 0.0 10.0 0.00 0.00 0.00 72 1005.4
20260510130211 71 308 1.0 10.0 0.00 0.00 0.00 53 1005.1
20260510120205 69 287 2.0 6.0 0.00 0.00 0.00 60 1005.3
20260510110207 67 314 1.0 10.0 0.00 0.00 0.00 59 1005.6
20260510100205 67 298 1.0 4.0 0.00 0.00 0.00 60 1006.1
20260510090206 67 318 0.0 2.0 0.00 0.00 0.00 63 1006.6
20260510080207 65 313 0.0 1.0 0.00 0.00 0.00 65 1006.5
20260510070207 61 127 0.0 0.0 0.00 0.00 0.00 71 1006.1
20260510060212 57 127 0.0 0.0 0.00 0.00 0.00 78 1006.0
20260510050207 55 127 0.0 0.0 0.00 0.00 0.00 81 1006.0
20260510040225 55 127 0.0 0.0 0.00 0.00 0.00 81 1006.1
20260510030211 57 127 0.0 0.0 0.00 0.00 0.00 78 1006.3
20260510020206 57 73 0.0 1.0 0.00 0.00 0.00 77 1006.4
20260510010206 56 306 0.0 0.0 0.00 0.00 0.00 81 1006.9
20260510000234 57 307 0.0 0.0 0.00 0.00 0.00 77 1007.1